Regional Weather Roundup
Issued by NWS

Home | Current Version | Previous Version | Graphics & Text | Print | Product List | Glossary On
Versions: 1 2 3 4 5 6 7 8 9 10 11 12 13 14 15 16 17 18 19 20 21 22 23 24 25 26 27 28 29 30 31 32 33 34 35 36 37 38 39 40 41 42 43 44 45 46 47 48 49 50
000
ASUS43 KMKX 301414
RWRWI

WISCONSIN REGIONAL WEATHER ROUNDUP
NATIONAL WEATHER SERVICE MILWAUKEE/SULLIVAN WI
900 AM CDT SAT MAY 30 2015

NOTE: "FAIR" INDICATES FEW OR NO CLOUDS BELOW 12,000 FEET WITH NO
SIGNIFICANT WEATHER AND/OR OBSTRUCTIONS TO VISIBILITY.

WIZ001-002-006>008-014>016-023>028-301500-
NORTHWEST WISCONSIN

CITY           SKY/WX    TMP DP  RH WIND       PRES   REMARKS
SUPERIOR ARPT  MOSUNNY   48  36  64 N9        30.26S
ASHLAND        CLOUDY    48  39  71 NE17      30.25R
HAYWARD        CLOUDY    48  39  71 N14       30.21R
SIREN          PTSUNNY   49  39  67 NE15      30.22S
CUMBERLAND     CLOUDY    46  41  81 N14       30.19R
RICE LAKE      CLOUDY    49  42  76 N16       30.20R
CHETEK         CLOUDY    50  44  80 N13       30.18R
LADYSMITH      CLOUDY    50  45  81 N15       30.18R
EAU CLAIRE     CLOUDY    52  44  74 N13G20    30.14R
MENOMONIE      CLOUDY    51  45  78 N13       30.17R
NEW RICHMOND   MOSUNNY   50  42  73 N15       30.20R
OSCEOLA        MOSUNNY   49  40  70 N13G18    30.24R
$$

WIZ003>005-009-010-017-018-301500-
NORTH CENTRAL WISCONSIN

CITY           SKY/WX    TMP DP  RH WIND       PRES   REMARKS
MANITOWISH WTR DRIZZLE   46  45  98 N13G20    30.17R
ARBOR VITAE    CLOUDY    49  47  91 NE15      30.15R
WOODRUFF       CLOUDY    49  47  91 NE15      30.15R
RHINELANDER    LGT RAIN  49  46  90 NE10G17   30.14R FOG
EAGLE RIVER    RAIN      48  45  91 NE15      30.15R
LAND O LAKES   RAIN      46  45  95 NE8G16    30.17R
PHILLIPS       CLOUDY    48  45  88 N12G17    30.15R
TOMAHAWK       CLOUDY    50  48  93 NW9       30.14R FOG
MEDFORD        CLOUDY    51  47  87 N15       30.12S
MERRILL        CLOUDY    53  48  85 NE10      30.12S
$$

WIZ029-030-035-036-043>047-301500-
CENTRAL WISCONSIN

CITY           SKY/WX    TMP DP  RH WIND       PRES   REMARKS
WAUSAU         CLOUDY    54  48  80 VRB6G17   30.09R
MOSINEE        LGT RAIN  54  52  94 NE10      30.11R
MARSHFIELD     CLOUDY    54  49  83 N9        30.10R
STEVENS POINT  DRIZZLE   52  49  90 NE9       30.10R
WAUPACA        LGT RAIN  54  52  92 NE12G20   30.09S
WAUTOMA        RAIN      52  52 100 NE13      30.08R FOG
WISC RAPIDS    CLOUDY    56  49  77 NE10      30.10R
CAMP DOUGLAS   DRIZZLE   54  54 100 NE9       30.08R
$$

WIZ011>013-019>022-031-037>040-048>050-301500-
NORTHEAST WISCONSIN

CITY           SKY/WX    TMP DP  RH WIND       PRES   REMARKS
ANTIGO         CLOUDY    51  46  84 NE21      30.11R
SHAWANO        LGT RAIN  54  50  87 NE15      30.10S
OCONTO         CLOUDY    51  47  86 NE10G16   30.10R
STURGEON BAY   CLOUDY    48  43  81 N16       30.12R
GREEN BAY      LGT RAIN  52  49  89 N15       30.09R
MANITOWOC      LGT RAIN  50  48  93 NE8G17    30.08R
APPLETON       LGT RAIN  50  50 100 NE14G21   30.08R FOG
CLINTONVILLE   RAIN      52  50  93 NE6       30.10R
OSHKOSH        LGT RAIN  53  50  89 NE15      30.06F FOG
$$

WIZ032>034-041-042-053>061-301500-
SOUTHWEST WISCONSIN

CITY           SKY/WX    TMP DP  RH WIND       PRES   REMARKS
LA CROSSE      CLOUDY    57  51  80 N9        30.10R
SPARTA         CLOUDY    54  52  95 N5        30.10R FOG
VIROQUA        CLOUDY    54  54 100 N17       30.06R
BOSCOBEL       LGT RAIN  60  57  89 N8        30.03R FOG
PRAIRIE DU CHI CLOUDY    59  54  83 NW7       30.04R
PLATTEVILLE    CLOUDY    62  60  94 N16       29.99R
$$

WIZ056-057-062-063-064-067-068-301500-
SOUTH CENTRAL WISCONSIN

CITY           SKY/WX    TMP DP  RH WIND       PRES   REMARKS
REEDSBURG      DRIZZLE   54  52  94 NE15      30.06R
BARABOO/DELLS  RAIN      54  52  94 NE12      30.05R
LONE ROCK      LGT RAIN  60  56  86 N6        30.04R FOG
MINERAL POINT  CLOUDY    61  57  88 NE16G23   30.00R
MADISON        LGT RAIN  57  55  93 NE17G32   30.00R FOG
MIDDLETON      CLOUDY    60  58  96 NE15G28   30.01R
WATERTOWN      CLOUDY   N/A N/A N/A NE12G21   30.02R
MONROE         CLOUDY    66  63  88 SW6       29.97R
JANESVILLE     MOSUNNY   70  66  88 SW6       29.96S
$$

WIZ051-052-058>065-066-070>072-301500-
SOUTHEAST WISCONSIN

CITY           SKY/WX    TMP DP  RH WIND       PRES   REMARKS
MILWAUKEE      LGT RAIN  51  48  89 NE16G22   30.03R
WAUKESHA       CLOUDY    52  48  87 NE14G21   30.03R
MILWAUKEE/TIMM DRIZZLE   52  46  82 NE15G28   30.04R
RACINE         LGT RAIN  50  48  93 N15G24    30.03S
BURLINGTON     DRIZZLE   53  52  97 NE10      30.01R
KENOSHA        LGT RAIN  53  51  93 N9        30.01R
FOND DU LAC    RAIN      53  51  93 NE12G22   30.07R FOG
SHEBOYGAN      LGT RAIN  49  46  90 NE22G33   30.06R
WEST BEND      LGT RAIN  50  46  87 NE16G24   30.05R
JUNEAU         LGT RAIN  54  53  95 NE13G18   30.04R
$$

LSZ147-162-301500-
LAKE SUPERIOR

STATION/POSITION TIME  TEMP    WIND        PRES    WAVE
                       AIR SEA DIR/SP/G            HT/PER
                 (UTC) (F)     (DEG/KT/KT) (MB)    (FT/S)
W MID LAKE BUOY  1350   40 37   10/ 14/ 16   N/A     2/ 4
DEVILS ISLAND    1400   42      10/ 12/ 13   N/A
PORT WING        1200   45     340/  8/  9   N/A
SAXON HARBOR     1300   46      10/  7/  8   N/A
$$

LMZ867-665-643>646-301500-
LAKE MICHIGAN

STATION/POSITION TIME  TEMP    WIND        PRES    WAVE
                       AIR SEA DIR/SP/G            HT/PER
                 (UTC) (F)     (DEG/KT/KT) (MB)    (FT/S)
CHAMBERS ISLAND  1300   50     350/ 17/ 19   N/A
N MID LAKE BUOY  1350   40 37  330/  6/  6   N/A     2/ 4
NORTHPORT PIER   1300   49     350/ 21       N/A
SISTER BAY       1318   49      30/ 14/ 18   N/A
ALGOMA LAKESHORE 1308          360/ 13/ 16   N/A
KEWAUNEE LAKESHO 1300   49      30/ 10/ 15   N/A
SHEBOYGAN LAKESH 1400   46     360/ 19/ 21   N/A
PORT WASHINGTON  1300   52      20/ 12/ 23   N/A
ATWATER BUOY     1300   51      20/ 16/ 19   N/A
MILWAUKEE LAKESH 1300   51      20/ 16/ 20   N/A
S MID LAKE BUOY  1350   42 38  360/ 10/ 12   N/A     0
KENOSHA   LAKESH 1400   50      10/ 19/ 22   N/A
$$

TC  - TEMPERATURE IN CELSIUS
VSB - VISIBILITY IN STATUTE MILES
WCI - WIND CHILL INDEX
HX  - HEAT INDEX




USA.gov is the U.S. government's official web portal to all federal, state and local government web resources and services.